Radiation Dose at Monitoring Post of Fukushima Daini Nuclear Power Station
Date,Time,MP-1(microSv/h),MP-2(microSv/h),MP-3(microSv/h),MP-4(microSv/h),MP-5(microSv/h),MP-6(microSv/h),MP-7(microSv/h),Wind Direction,Wind Velocity(m/s),Rain
2015/01/04,00:00,0.591,0.378,0.631,0.572,0.564,0.259,0.232,south-southwest,6.0,No
2015/01/04,00:10,0.593,0.378,0.632,0.572,0.565,0.259,0.232,southwest,6.4,No
2015/01/04,00:20,0.593,0.379,0.632,0.570,0.563,0.258,0.232,southwest,5.6,No
2015/01/04,00:30,0.593,0.378,0.629,0.571,0.564,0.259,0.231,southwest,5.9,No
2015/01/04,00:40,0.594,0.379,0.631,0.571,0.565,0.258,0.232,south-southwest,5.0,No
2015/01/04,00:50,0.593,0.380,0.632,0.572,0.563,0.258,0.233,south-southwest,3.9,No
2015/01/04,01:00,0.593,0.378,0.629,0.571,0.565,0.259,0.233,south-southwest,4.4,No
2015/01/04,01:10,0.594,0.379,0.632,0.572,0.563,0.259,0.231,south-southwest,5.4,No
2015/01/04,01:20,0.594,0.378,0.632,0.571,0.564,0.259,0.232,south,4.4,No
2015/01/04,01:30,0.594,0.378,0.630,0.571,0.563,0.259,0.232,south,4.0,No
2015/01/04,01:40,0.592,0.377,0.632,0.570,0.564,0.258,0.233,south-southwest,4.1,No
2015/01/04,01:50,0.593,0.379,0.630,0.573,0.564,0.259,0.231,south-southwest,3.7,No
2015/01/04,02:00,0.593,0.379,0.631,0.571,0.565,0.259,0.232,southwest,2.7,No
2015/01/04,02:10,0.594,0.379,0.631,0.571,0.564,0.261,0.232,south-southwest,3.3,No
2015/01/04,02:20,0.592,0.379,0.632,0.572,0.563,0.260,0.230,south-southwest,4.0,No
2015/01/04,02:30,0.593,0.378,0.630,0.572,0.564,0.258,0.231,south-southwest,5.4,No
2015/01/04,02:40,0.594,0.378,0.631,0.573,0.565,0.260,0.231,southwest,6.7,No
2015/01/04,02:50,0.592,0.378,0.631,0.574,0.564,0.261,0.231,west-southwest,6.9,No
2015/01/04,03:00,0.594,0.378,0.632,0.572,0.565,0.259,0.232,southwest,4.7,No
2015/01/04,03:10,0.592,0.380,0.631,0.572,0.563,0.259,0.230,south-southwest,4.5,No
2015/01/04,03:20,0.593,0.378,0.632,0.574,0.565,0.260,0.232,south-southwest,3.3,No
2015/01/04,03:30,0.594,0.379,0.632,0.570,0.564,0.259,0.231,south-southwest,3.6,No
2015/01/04,03:40,0.593,0.378,0.631,0.573,0.565,0.258,0.230,south-southwest,2.2,No
2015/01/04,03:50,0.594,0.378,0.631,0.573,0.564,0.259,0.232,south-southwest,2.8,No
2015/01/04,04:00,0.592,0.378,0.633,0.573,0.564,0.259,0.232,southwest,3.1,No
2015/01/04,04:10,0.594,0.381,0.632,0.573,0.563,0.258,0.233,southwest,3.2,No
2015/01/04,04:20,0.592,0.379,0.631,0.572,0.564,0.258,0.231,southwest,4.2,No
2015/01/04,04:30,0.591,0.379,0.631,0.570,0.566,0.258,0.231,southwest,2.6,No
2015/01/04,04:40,0.593,0.379,0.633,0.571,0.563,0.258,0.231,south-southwest,1.7,No
2015/01/04,04:50,0.593,0.379,0.632,0.573,0.564,0.260,0.230,southwest,2.5,No
2015/01/04,05:00,0.592,0.379,0.632,0.571,0.562,0.258,0.232,southwest,1.9,No
2015/01/04,05:10,0.593,0.378,0.632,0.570,0.565,0.260,0.231,southwest,2.5,No
2015/01/04,05:20,0.593,0.379,0.631,0.572,0.565,0.260,0.230,south-southwest,2.8,No
2015/01/04,05:30,0.594,0.378,0.631,0.573,0.564,0.260,0.231,south-southwest,3.3,No
2015/01/04,05:40,0.591,0.380,0.631,0.572,0.564,0.258,0.232,south-southwest,2.6,No
2015/01/04,05:50,0.592,0.378,0.631,0.572,0.565,0.260,0.231,south-southwest,2.8,No
2015/01/04,06:00,0.593,0.379,0.632,0.573,0.563,0.258,0.232,south-southwest,3.1,No
2015/01/04,06:10,0.592,0.378,0.633,0.572,0.564,0.259,0.231,south-southwest,3.9,No
2015/01/04,06:20,0.594,0.379,0.632,0.571,0.564,0.258,0.231,south-southwest,3.6,No
2015/01/04,06:30,0.594,0.378,0.631,0.572,0.564,0.258,0.232,south-southwest,4.3,No
2015/01/04,06:40,0.593,0.379,0.632,0.572,0.566,0.258,0.232,south-southwest,5.0,No
2015/01/04,06:50,0.594,0.378,0.633,0.572,0.564,0.261,0.231,south-southwest,5.8,No
2015/01/04,07:00,0.593,0.378,0.631,0.573,0.563,0.259,0.231,south-southwest,6.9,No
2015/01/04,07:10,0.594,0.378,0.630,0.572,0.565,0.260,0.231,south-southwest,5.8,No
2015/01/04,07:20,0.593,0.379,0.632,0.571,0.564,0.259,0.231,south-southwest,6.7,No
2015/01/04,07:30,0.592,0.379,0.631,0.572,0.563,0.258,0.231,south-southwest,6.2,No
2015/01/04,07:40,0.593,0.380,0.632,0.571,0.563,0.259,0.232,south-southwest,6.6,No
2015/01/04,07:50,0.593,0.378,0.632,0.572,0.563,0.259,0.233,south-southwest,6.4,No
2015/01/04,08:00,0.594,0.379,0.632,0.572,0.564,0.260,0.233,south-southwest,7.1,No
2015/01/04,08:10,0.592,0.379,0.632,0.573,0.565,0.260,0.232,southwest,6.3,No
2015/01/04,08:20,0.593,0.378,0.633,0.572,0.564,0.260,0.231,south-southwest,7.3,No
2015/01/04,08:30,0.594,0.377,0.632,0.572,0.564,0.258,0.232,south-southwest,6.3,No
2015/01/04,08:40,0.593,0.380,0.632,0.574,0.565,0.258,0.232,south-southwest,5.4,No
2015/01/04,08:50,0.593,0.379,0.632,0.574,0.564,0.260,0.232,south,5.1,No
2015/01/04,09:00,0.591,0.379,0.632,0.575,0.563,0.258,0.232,south,4.7,No
2015/01/04,09:10,0.594,0.378,0.633,0.575,0.565,0.260,0.233,south-southwest,6.1,No
2015/01/04,09:20,0.594,0.380,0.633,0.574,0.564,0.259,0.232,south-southwest,5.8,No
2015/01/04,09:30,0.595,0.379,0.633,0.573,0.563,0.259,0.230,south-southwest,5.5,No
2015/01/04,09:40,0.592,0.379,0.631,0.571,0.564,0.260,0.232,south-southwest,5.4,No
2015/01/04,09:50,0.595,0.380,0.634,0.573,0.565,0.259,0.231,south-southwest,5.0,No
2015/01/04,10:00,0.594,0.380,0.631,0.574,0.565,0.261,0.232,south-southwest,5.4,No
2015/01/04,10:10,0.593,0.381,0.634,0.575,0.564,0.259,0.231,south-southwest,4.8,No
2015/01/04,10:20,0.595,0.380,0.632,0.575,0.563,0.259,0.231,south-southwest,5.9,No
2015/01/04,10:30,0.595,0.381,0.633,0.575,0.564,0.259,0.231,southwest,5.9,No
2015/01/04,10:40,0.593,0.380,0.633,0.576,0.565,0.259,0.231,south-southwest,6.3,No
2015/01/04,10:50,0.593,0.380,0.634,0.575,0.565,0.260,0.232,south-southwest,5.0,No
2015/01/04,11:00,0.594,0.380,0.633,0.574,0.564,0.259,0.230,south-southwest,4.2,No
2015/01/04,11:10,0.595,0.380,0.633,0.574,0.566,0.259,0.231,southwest,1.6,No
2015/01/04,11:20,0.594,0.380,0.631,0.574,0.565,0.260,0.231,-,CALM,No
2015/01/04,11:30,0.594,0.380,0.631,0.576,0.565,0.260,0.231,south,0.5,No
2015/01/04,11:40,0.595,0.381,0.634,0.574,0.565,0.258,0.233,-,CALM,No
2015/01/04,11:50,0.595,0.380,0.633,0.574,0.565,0.259,0.232,northeast,1.4,No
2015/01/04,12:00,0.596,0.381,0.632,0.575,0.566,0.261,0.231,north-northeast,2.2,No
2015/01/04,12:10,0.595,0.381,0.633,0.575,0.565,0.260,0.232,north,2.1,No
2015/01/04,12:20,0.595,0.382,0.634,0.575,0.565,0.259,0.231,north,2.4,No
2015/01/04,12:30,0.596,0.381,0.633,0.576,0.566,0.259,0.232,north-northwest,2.7,No
2015/01/04,12:40,0.595,0.380,0.634,0.575,0.567,0.260,0.232,north-northwest,1.7,No
2015/01/04,12:50,0.595,0.382,0.636,0.574,0.565,0.261,0.232,north-northeast,1.5,No
2015/01/04,13:00,0.597,0.381,0.633,0.574,0.565,0.259,0.231,north-northeast,2.2,No
2015/01/04,13:10,0.595,0.381,0.636,0.576,0.565,0.259,0.231,north,2.3,No
2015/01/04,13:20,0.595,0.381,0.634,0.575,0.565,0.260,0.232,north-northeast,3.6,No
2015/01/04,13:30,0.595,0.381,0.634,0.573,0.564,0.259,0.232,north,4.4,No
2015/01/04,13:40,0.597,0.380,0.633,0.575,0.566,0.260,0.232,north-northeast,3.9,No
2015/01/04,13:50,0.595,0.380,0.634,0.575,0.566,0.260,0.233,north-northeast,5.6,No
2015/01/04,14:00,0.596,0.381,0.633,0.576,0.567,0.260,0.231,north,4.8,No
2015/01/04,14:10,0.596,0.382,0.634,0.575,0.566,0.260,0.231,north,5.1,No
2015/01/04,14:20,0.596,0.383,0.634,0.576,0.567,0.260,0.232,north-northeast,4.7,No
2015/01/04,14:30,0.595,0.380,0.634,0.575,0.566,0.259,0.232,north-northeast,5.5,No
2015/01/04,14:40,0.595,0.380,0.636,0.574,0.566,0.259,0.231,north,5.0,No
2015/01/04,14:50,0.596,0.380,0.635,0.575,0.567,0.259,0.233,north-northeast,2.4,No
2015/01/04,15:00,0.595,0.379,0.632,0.576,0.565,0.259,0.232,north,3.2,No
2015/01/04,15:10,0.596,0.381,0.634,0.572,0.566,0.259,0.232,north,2.8,No
2015/01/04,15:20,0.595,0.380,0.632,0.576,0.566,0.259,0.232,north,2.9,No
2015/01/04,15:30,0.597,0.382,0.634,0.574,0.565,0.260,0.232,north,1.5,No
2015/01/04,15:40,0.597,0.381,0.633,0.576,0.566,0.259,0.232,north,2.0,No
2015/01/04,15:50,0.597,0.379,0.634,0.575,0.566,0.260,0.232,north,2.2,No
2015/01/04,16:00,0.595,0.382,0.634,0.574,0.566,0.259,0.235,north,1.4,No
2015/01/04,16:10,0.594,0.381,0.634,0.575,0.566,0.259,0.233,north,2.2,No
2015/01/04,16:20,0.594,0.381,0.632,0.575,0.565,0.259,0.232,north,3.1,No
2015/01/04,16:30,0.595,0.380,0.632,0.574,0.565,0.260,0.232,north,3.4,No
2015/01/04,16:40,0.596,0.380,0.633,0.573,0.564,0.259,0.233,north,3.7,No
2015/01/04,16:50,0.593,0.379,0.632,0.574,0.564,0.259,0.231,north,3.7,No
2015/01/04,17:00,0.595,0.380,0.633,0.572,0.566,0.258,0.231,north,3.7,No
2015/01/04,17:10,0.596,0.380,0.632,0.575,0.567,0.259,0.231,north,3.6,No
2015/01/04,17:20,0.595,0.379,0.634,0.574,0.564,0.259,0.233,north,3.2,No
2015/01/04,17:30,0.595,0.380,0.631,0.574,0.567,0.261,0.232,north,4.2,No
2015/01/04,17:40,0.595,0.379,0.632,0.572,0.565,0.260,0.232,north,4.6,No
2015/01/04,17:50,0.597,0.380,0.632,0.574,0.565,0.259,0.232,north,3.5,No
2015/01/04,18:00,0.595,0.380,0.634,0.575,0.566,0.259,0.233,north,3.1,No
2015/01/04,18:10,0.595,0.381,0.631,0.573,0.566,0.259,0.232,north,3.3,No
2015/01/04,18:20,0.595,0.379,0.632,0.572,0.565,0.260,0.232,north,4.2,No
2015/01/04,18:30,0.595,0.379,0.630,0.573,0.564,0.260,0.233,north,5.1,No
2015/01/04,18:40,0.595,0.380,0.632,0.572,0.566,0.260,0.233,north,5.6,No
2015/01/04,18:50,0.596,0.380,0.632,0.572,0.564,0.260,0.232,north,5.2,No
2015/01/04,19:00,0.595,0.380,0.632,0.573,0.566,0.260,0.232,north,5.3,No
2015/01/04,19:10,0.593,0.380,0.631,0.573,0.566,0.260,0.232,north,5.5,No
2015/01/04,19:20,0.595,0.380,0.631,0.572,0.565,0.259,0.232,north-northwest,3.1,No
2015/01/04,19:30,0.594,0.380,0.631,0.573,0.565,0.259,0.233,north-northwest,2.8,No
2015/01/04,19:40,0.595,0.380,0.633,0.572,0.565,0.259,0.233,north-northwest,2.2,No
2015/01/04,19:50,0.595,0.380,0.633,0.572,0.566,0.260,0.232,north-northwest,2.0,No
2015/01/04,20:00,0.594,0.380,0.633,0.572,0.565,0.258,0.233,west-northwest,1.7,No
2015/01/04,20:10,0.593,0.379,0.633,0.575,0.565,0.260,0.233,west-northwest,2.6,No
2015/01/04,20:20,0.595,0.379,0.633,0.575,0.566,0.260,0.231,west-northwest,1.1,No
2015/01/04,20:30,0.596,0.379,0.633,0.573,0.566,0.261,0.232,west-northwest,2.5,No
2015/01/04,20:40,0.596,0.380,0.632,0.574,0.565,0.261,0.232,northwest,2.2,No
2015/01/04,20:50,0.592,0.379,0.634,0.573,0.564,0.260,0.232,north-northwest,2.0,No
2015/01/04,21:00,0.595,0.379,0.633,0.574,0.566,0.260,0.233,north-northwest,2.2,No
2015/01/04,21:10,0.595,0.380,0.633,0.573,0.566,0.260,0.233,west-northwest,2.6,No
2015/01/04,21:20,0.596,0.380,0.632,0.574,0.564,0.258,0.232,northwest,2.2,No
2015/01/04,21:30,0.594,0.378,0.631,0.572,0.564,0.260,0.232,northwest,2.6,No
2015/01/04,21:40,0.596,0.380,0.634,0.572,0.564,0.260,0.233,west,2.8,No
2015/01/04,21:50,0.594,0.380,0.633,0.573,0.564,0.260,0.233,west-northwest,3.1,No
2015/01/04,22:00,0.595,0.379,0.631,0.572,0.566,0.259,0.234,north-northwest,2.2,No
2015/01/04,22:10,0.595,0.379,0.630,0.573,0.566,0.259,0.233,northwest,1.5,No
2015/01/04,22:20,0.594,0.380,0.633,0.572,0.564,0.259,0.232,north-northwest,2.2,No
2015/01/04,22:30,0.595,0.379,0.631,0.575,0.566,0.260,0.234,north,2.7,No
2015/01/04,22:40,0.594,0.379,0.631,0.574,0.564,0.261,0.232,north,2.6,No
2015/01/04,22:50,0.594,0.380,0.631,0.574,0.565,0.260,0.233,north-northwest,2.4,No
2015/01/04,23:00,0.595,0.380,0.632,0.574,0.564,0.261,0.234,north-northwest,2.8,No
2015/01/04,23:10,0.593,0.380,0.631,0.574,0.567,0.260,0.233,north-northwest,2.4,No
2015/01/04,23:20,0.594,0.379,0.631,0.574,0.564,0.260,0.233,north,2.4,No
2015/01/04,23:30,0.594,0.379,0.630,0.574,0.564,0.259,0.232,north,2.0,No
2015/01/04,23:40,0.594,0.380,0.632,0.573,0.565,0.259,0.232,north,2.9,No
2015/01/04,23:50,0.595,0.380,0.633,0.575,0.566,0.260,0.232,north,3.8,No
